TimeMST,TemperatureF,Dew PointF,Humidity,Sea Level PressureIn,VisibilityMPH,Wind Direction,Wind SpeedMPH,Gust SpeedMPH,PrecipitationIn,Events,Conditions,WindDirDegrees,DateUTC
12:15 AM,44.6,26.6,49,30.19,10.0,NNW,3.5,-,N/A,,Clear,330,2013-11-09 07:15:00
12:35 AM,46.4,26.6,46,30.19,10.0,Calm,Calm,-,N/A,,Clear,0,2013-11-09 07:35:00
12:55 AM,46.4,26.6,46,30.19,10.0,Calm,Calm,-,N/A,,Clear,0,2013-11-09 07:55:00
1:15 AM,46.4,26.6,46,30.19,10.0,Calm,Calm,-,N/A,,Clear,0,2013-11-09 08:15:00
1:35 AM,46.4,26.6,46,30.19,10.0,Calm,Calm,-,N/A,,Clear,0,2013-11-09 08:35:00
1:55 AM,46.4,26.6,46,30.19,10.0,Calm,Calm,-,N/A,,Clear,0,2013-11-09 08:55:00
2:15 AM,44.6,26.6,49,30.19,10.0,Calm,Calm,-,N/A,,Clear,0,2013-11-09 09:15:00
2:35 AM,44.6,26.6,49,30.19,10.0,Calm,Calm,-,N/A,,Clear,0,2013-11-09 09:35:00
2:55 AM,44.6,26.6,49,30.19,10.0,Calm,Calm,-,N/A,,Clear,0,2013-11-09 09:55:00
3:15 AM,44.6,26.6,49,30.19,10.0,Calm,Calm,-,N/A,,Clear,0,2013-11-09 10:15:00
3:35 AM,44.6,26.6,49,30.19,10.0,Calm,Calm,-,N/A,,Clear,0,2013-11-09 10:35:00
3:55 AM,44.6,26.6,49,30.19,10.0,Calm,Calm,-,N/A,,Clear,0,2013-11-09 10:55:00
4:15 AM,44.6,26.6,49,30.19,10.0,Calm,Calm,-,N/A,,Clear,0,2013-11-09 11:15:00
4:35 AM,44.6,26.6,49,30.19,10.0,Calm,Calm,-,N/A,,Clear,0,2013-11-09 11:35:00
4:55 AM,42.8,26.6,53,30.20,10.0,Calm,Calm,-,N/A,,Clear,0,2013-11-09 11:55:00
5:15 AM,44.6,26.6,49,30.20,10.0,Calm,Calm,-,N/A,,Clear,0,2013-11-09 12:15:00
5:35 AM,44.6,26.6,49,30.21,10.0,Calm,Calm,-,N/A,,Clear,0,2013-11-09 12:35:00
5:55 AM,42.8,26.6,53,30.21,10.0,Calm,Calm,-,N/A,,Clear,0,2013-11-09 12:55:00
6:15 AM,42.8,26.6,53,30.21,10.0,Calm,Calm,-,N/A,,Clear,0,2013-11-09 13:15:00
6:35 AM,42.8,28.4,57,30.21,10.0,Calm,Calm,-,N/A,,Clear,0,2013-11-09 13:35:00
6:55 AM,42.8,28.4,57,30.22,10.0,Calm,Calm,-,N/A,,Clear,0,2013-11-09 13:55:00
7:15 AM,42.8,26.6,53,30.23,10.0,Calm,Calm,-,N/A,,Clear,0,2013-11-09 14:15:00
7:35 AM,42.8,26.6,53,30.23,10.0,Calm,Calm,-,N/A,,Clear,0,2013-11-09 14:35:00
7:55 AM,44.6,28.4,53,30.24,10.0,Calm,Calm,-,N/A,,Clear,0,2013-11-09 14:55:00
8:15 AM,48.2,28.4,46,30.25,10.0,Calm,Calm,-,N/A,,Clear,0,2013-11-09 15:15:00
8:35 AM,51.8,30.2,44,30.25,10.0,Calm,Calm,-,N/A,,Clear,0,2013-11-09 15:35:00
8:55 AM,55.4,30.2,38,30.26,10.0,Calm,Calm,-,N/A,,Clear,0,2013-11-09 15:55:00
9:15 AM,59.0,30.2,34,30.26,10.0,Calm,Calm,-,N/A,,Clear,0,2013-11-09 16:15:00
9:35 AM,60.8,30.2,31,30.26,10.0,Calm,Calm,-,N/A,,Clear,0,2013-11-09 16:35:00
9:55 AM,62.6,30.2,30,30.26,10.0,Calm,Calm,-,N/A,,Clear,0,2013-11-09 16:55:00
10:15 AM,62.6,30.2,30,30.26,10.0,Calm,Calm,-,N/A,,Clear,0,2013-11-09 17:15:00
10:35 AM,64.4,28.4,26,30.26,10.0,Calm,Calm,-,N/A,,Clear,0,2013-11-09 17:35:00
10:55 AM,64.4,28.4,26,30.26,10.0,Calm,Calm,-,N/A,,Clear,0,2013-11-09 17:55:00
11:15 AM,66.2,26.6,23,30.26,10.0,West,6.9,12.7,N/A,,Clear,280,2013-11-09 18:15:00
11:35 AM,66.2,26.6,23,30.25,10.0,WSW,8.1,15.0,N/A,,Clear,250,2013-11-09 18:35:00
11:55 AM,66.2,26.6,23,30.24,10.0,WSW,9.2,15.0,N/A,,Clear,240,2013-11-09 18:55:00
12:15 PM,66.2,26.6,23,30.24,10.0,WSW,8.1,-,N/A,,Clear,250,2013-11-09 19:15:00
12:35 PM,66.2,23.0,19,30.23,10.0,Variable,4.6,-,N/A,,Clear,0,2013-11-09 19:35:00
12:55 PM,68.0,23.0,18,30.22,10.0,Variable,6.9,-,N/A,,Clear,0,2013-11-09 19:55:00
1:15 PM,68.0,23.0,18,30.22,10.0,SW,9.2,-,N/A,,Clear,220,2013-11-09 20:15:00
1:35 PM,68.0,26.6,21,30.21,10.0,Calm,Calm,15.0,N/A,,Clear,0,2013-11-09 20:35:00
1:55 PM,68.0,24.8,20,30.21,10.0,Variable,5.8,-,N/A,,Clear,0,2013-11-09 20:55:00
2:15 PM,68.0,24.8,20,30.20,10.0,WSW,4.6,-,N/A,,Clear,240,2013-11-09 21:15:00
2:35 PM,68.0,24.8,20,30.20,10.0,Variable,6.9,-,N/A,,Clear,0,2013-11-09 21:35:00
2:55 PM,68.0,24.8,20,30.20,10.0,West,5.8,-,N/A,,Clear,280,2013-11-09 21:55:00
3:15 PM,68.0,24.8,20,30.19,10.0,Calm,Calm,-,N/A,,Clear,0,2013-11-09 22:15:00
3:35 PM,68.0,26.6,21,30.19,10.0,Variable,5.8,-,N/A,,Clear,0,2013-11-09 22:35:00
3:55 PM,68.0,26.6,21,30.20,10.0,SW,5.8,11.5,N/A,,Clear,230,2013-11-09 22:55:00
4:15 PM,68.0,26.6,21,30.20,10.0,SSW,6.9,-,N/A,,Clear,200,2013-11-09 23:15:00
4:35 PM,66.2,26.6,23,30.20,10.0,SSW,5.8,-,N/A,,Clear,200,2013-11-09 23:35:00
4:55 PM,66.2,26.6,23,30.20,10.0,SW,4.6,-,N/A,,Clear,220,2013-11-09 23:55:00
5:15 PM,64.4,26.6,24,30.20,10.0,SW,4.6,-,N/A,,Clear,220,2013-11-10 00:15:00
5:35 PM,60.8,28.4,29,30.21,10.0,Calm,Calm,-,N/A,,Clear,0,2013-11-10 00:35:00
5:55 PM,59.0,28.4,31,30.21,10.0,Calm,Calm,-,N/A,,Clear,0,2013-11-10 00:55:00
6:15 PM,57.2,28.4,33,30.21,10.0,Calm,Calm,-,N/A,,Clear,0,2013-11-10 01:15:00
6:35 PM,59.0,28.4,31,30.22,10.0,Calm,Calm,-,N/A,,Clear,0,2013-11-10 01:35:00
7:35 PM,55.4,28.4,36,30.23,10.0,Calm,Calm,-,N/A,,Clear,0,2013-11-10 02:35:00
7:55 PM,57.2,26.6,31,30.23,10.0,Calm,Calm,-,N/A,,Clear,0,2013-11-10 02:55:00
8:15 PM,55.4,26.6,33,30.24,10.0,Calm,Calm,-,N/A,,Clear,0,2013-11-10 03:15:00
8:35 PM,53.6,26.6,35,30.24,10.0,Calm,Calm,-,N/A,,Clear,0,2013-11-10 03:35:00
8:55 PM,51.8,26.6,38,30.25,10.0,Calm,Calm,-,N/A,,Clear,0,2013-11-10 03:55:00
9:15 PM,51.8,24.8,35,30.25,10.0,Calm,Calm,-,N/A,,Clear,0,2013-11-10 04:15:00
9:35 PM,51.8,24.8,35,30.26,10.0,Calm,Calm,-,N/A,,Clear,0,2013-11-10 04:35:00
9:55 PM,50.0,24.8,37,30.26,10.0,Calm,Calm,-,N/A,,Clear,0,2013-11-10 04:55:00
10:15 PM,51.8,24.8,35,30.26,10.0,Calm,Calm,-,N/A,,Clear,0,2013-11-10 05:15:00
10:35 PM,50.0,24.8,37,30.26,10.0,Calm,Calm,-,N/A,,Clear,0,2013-11-10 05:35:00
10:55 PM,48.2,24.8,40,30.26,10.0,Calm,Calm,-,N/A,,Clear,0,2013-11-10 05:55:00
11:15 PM,46.4,24.8,43,30.26,10.0,Calm,Calm,-,N/A,,Clear,0,2013-11-10 06:15:00
11:35 PM,46.4,24.8,43,30.26,10.0,Calm,Calm,-,N/A,,Clear,0,2013-11-10 06:35:00
11:55 PM,46.4,24.8,43,30.26,10.0,Calm,Calm,-,N/A,,Clear,0,2013-11-10 06:55:00